{"data":{"norad_id":46375,"intl_designator":"2020-062BC","name":"STARLINK-1724","alt_names":[],"object_type":"PAYLOAD","status":"ACTIVE","operator":null,"country":"US","launch_date":"2020-09-03","launch_site_code":"AFETR","launch_vehicle":null,"mission":null,"orbit_class":"UNKNOWN","rcs_meters":null,"size_class":null,"mass_kg":null,"dimensions":null,"purposes":["comms"],"wikipedia_slug":null,"has_3d_model":false,"image_url":null,"decayed_at":null,"tle_current":{"epoch":"2026-05-25T01:21:52.912224Z","epoch_age_seconds":66028,"freshness":"FRESH","line1":"1 46375U 20062BC  26145.05686241  .00080747  00000+0  71433-3 0  9991","line2":"2 46375  53.0232 274.3451 0004087 233.9804 126.0833 15.67951165317499","mean_motion":15.67951165,"eccentricity":0.0004087,"inclination_deg":53.0232,"raan_deg":274.3451,"arg_perigee_deg":233.9804,"mean_anomaly_deg":126.0833,"bstar":0.00071433,"rev_number":31749,"period_min":91.839595016979,"perigee_km":362.00874336042,"apogee_km":367.52039110147,"semimajor_km":6742.9015672309,"source":"CELESTRAK","updated_at":"2026-05-25T13:38:16.473991Z"}}}